Meteo pe oră la Dabrowica

Astăzi, 11 Aprilie, Duminică

Timp Temperatura Precipitaţii Vânt Presiune Umiditate
00:00 +9°C° 0 mm 1 m/s 739 mmHg 73%
01:00 +8°C° 0 mm 2 m/s 739 mmHg 75%
02:00 +8°C° 0 mm 2 m/s 739 mmHg 76%
03:00 +7°C° 0 mm 2 m/s 739 mmHg 77%
04:00 +7°C° 0 mm 2 m/s 739 mmHg 77%
05:00 +7°C° 0 mm 3 m/s 739 mmHg 75%
06:00 +8°C° 0 mm 3 m/s 739 mmHg 73%
07:00 +8°C° 0 mm 3 m/s 739 mmHg 70%
08:00 +11°C° 0 mm 3 m/s 739 mmHg 62%
09:00 +13°C° 0 mm 4 m/s 739 mmHg 54%
10:00 +15°C° 0 mm 4 m/s 739 mmHg 46%
11:00 +16°C° 0 mm 5 m/s 739 mmHg 45%
12:00 +16°C° 0 mm 5 m/s 738 mmHg 43%
13:00 +17°C° 0 mm 5 m/s 738 mmHg 42%
14:00 +16°C° 0 mm 5 m/s 738 mmHg 47%
15:00 +15°C° 0 mm 5 m/s 738 mmHg 51%
16:00 +14°C° 0 mm 5 m/s 738 mmHg 56%
17:00 +13°C° 0.4 mm 4 m/s 738 mmHg 64%
18:00 +12°C° 0.4 mm 4 m/s 739 mmHg 73%
19:00 +11°C° 0.4 mm 3 m/s 739 mmHg 81%
20:00 +10°C° 0.1 mm 3 m/s 739 mmHg 81%
21:00 +10°C° 0.1 mm 4 m/s 738 mmHg 82%
22:00 +10°C° 0.1 mm 4 m/s 738 mmHg 82%
23:00 +10°C° 0 mm 4 m/s 738 mmHg 82%

Mâine, 12 Aprilie, Luni

Timp Temperatura Precipitaţii Vânt Presiune Umiditate
00:00 +10°C° 0 mm 4 m/s 738 mmHg 81%
01:00 +10°C° 0 mm 4 m/s 738 mmHg 81%
02:00 +10°C° 0 mm 3 m/s 737 mmHg 81%
03:00 +10°C° 0 mm 3 m/s 737 mmHg 80%
04:00 +9°C° 0 mm 3 m/s 737 mmHg 80%
05:00 +10°C° 0 mm 2 m/s 737 mmHg 80%
06:00 +10°C° 0 mm 2 m/s 737 mmHg 80%
07:00 +11°C° 0 mm 1 m/s 737 mmHg 80%
08:00 +11°C° 0 mm 1 m/s 737 mmHg 77%
09:00 +12°C° 0 mm 1 m/s 737 mmHg 75%
10:00 +12°C° 0 mm 1 m/s 737 mmHg 73%
11:00 +13°C° 0 mm 1 m/s 738 mmHg 70%
12:00 +13°C° 0 mm 2 m/s 738 mmHg 68%
13:00 +14°C° 0 mm 2 m/s 738 mmHg 66%
14:00 +12°C° 0 mm 3 m/s 738 mmHg 68%
15:00 +12°C° 0 mm 3 m/s 738 mmHg 71%
16:00 +11°C° 0 mm 3 m/s 738 mmHg 74%
17:00 +10°C° 0 mm 4 m/s 739 mmHg 79%
18:00 +8°C° 0 mm 4 m/s 739 mmHg 83%
19:00 +7°C° 0 mm 4 m/s 740 mmHg 88%
20:00 +6°C° 0 mm 5 m/s 740 mmHg 88%
21:00 +6°C° 0 mm 5 m/s 740 mmHg 88%
22:00 +5°C° 0 mm 5 m/s 740 mmHg 88%
23:00 +3°C° 0.1 mm 5 m/s 740 mmHg 89%

Poimâine, 13 Aprilie, Marţi

Timp Temperatura Precipitaţii Vânt Presiune Umiditate
00:00 +3°C° 0.1 mm 5 m/s 740 mmHg 89%
01:00 +2°C° 0.1 mm 5 m/s 740 mmHg 90%
02:00 +1°C° 1.1 mm 5 m/s 740 mmHg 92%
03:00 +1°C° 1.1 mm 5 m/s 740 mmHg 94%
04:00 0°C° 1.1 mm 5 m/s 740 mmHg 96%
05:00 0°C° 2.1 mm 5 m/s 740 mmHg 97%
06:00 -1°C° 2.1 mm 5 m/s 741 mmHg 98%
07:00 -1°C° 2.1 mm 5 m/s 741 mmHg 99%
08:00 -1°C° 1 mm 5 m/s 741 mmHg 99%
09:00 -1°C° 1 mm 5 m/s 742 mmHg 99%
10:00 -2°C° 1 mm 6 m/s 742 mmHg 99%
11:00 -2°C° 0.3 mm 6 m/s 742 mmHg 98%
12:00 -2°C° 0.3 mm 6 m/s 743 mmHg 98%
13:00 -1°C° 0.3 mm 6 m/s 743 mmHg 98%
14:00 0°C° 0.1 mm 5 m/s 742 mmHg 96%
15:00 0°C° 0.1 mm 5 m/s 742 mmHg 95%
16:00 +1°C° 0.1 mm 5 m/s 742 mmHg 93%
17:00 0°C° 0.1 mm 4 m/s 742 mmHg 94%
18:00 0°C° 0.1 mm 4 m/s 742 mmHg 95%
19:00 0°C° 0.1 mm 4 m/s 742 mmHg 96%
20:00 0°C° 0.2 mm 4 m/s 742 mmHg 96%
21:00 0°C° 0.2 mm 4 m/s 742 mmHg 96%
22:00 0°C° 0.2 mm 4 m/s 742 mmHg 96%
23:00 0°C° 0.6 mm 4 m/s 741 mmHg 95%

14 Aprilie, Miercuri

Timp Temperatura Precipitaţii Vânt Presiune Umiditate
00:00 -1°C° 0.6 mm 4 m/s 741 mmHg 94%
01:00 -1°C° 0.6 mm 5 m/s 741 mmHg 93%
02:00 -1°C° 0.4 mm 5 m/s 741 mmHg 93%
03:00 -1°C° 0.4 mm 5 m/s 741 mmHg 93%
04:00 -3°C° 0.4 mm 6 m/s 741 mmHg 93%
05:00 -3°C° 0.5 mm 6 m/s 741 mmHg 94%
06:00 -3°C° 0.5 mm 6 m/s 741 mmHg 95%
07:00 -3°C° 0.5 mm 6 m/s 740 mmHg 96%
08:00 -3°C° 0.5 mm 7 m/s 740 mmHg 97%
09:00 -2°C° 0.5 mm 7 m/s 740 mmHg 97%
10:00 -2°C° 0.5 mm 7 m/s 740 mmHg 98%
11:00 -2°C° 1.1 mm 7 m/s 740 mmHg 98%
12:00 -2°C° 1.1 mm 7 m/s 739 mmHg 98%
13:00 -2°C° 1.1 mm 7 m/s 739 mmHg 99%
14:00 -2°C° 1.7 mm 7 m/s 739 mmHg 99%
15:00 -2°C° 1.7 mm 7 m/s 738 mmHg 99%
16:00 -2°C° 1.7 mm 7 m/s 738 mmHg 99%
17:00 -3°C° 2 mm 7 m/s 738 mmHg 99%
18:00 -3°C° 2 mm 7 m/s 738 mmHg 99%
19:00 -3°C° 2 mm 7 m/s 738 mmHg 98%
20:00 -3°C° 2.3 mm 7 m/s 738 mmHg 98%
21:00 -3°C° 2.3 mm 7 m/s 737 mmHg 98%
22:00 -3°C° 2.3 mm 7 m/s 737 mmHg 98%
23:00 -3°C° 1.8 mm 6 m/s 737 mmHg 98%

15 Aprilie, Joi

Timp Temperatura Precipitaţii Vânt Presiune Umiditate
00:00 -3°C° 1.8 mm 6 m/s 737 mmHg 98%
01:00 -3°C° 1.8 mm 6 m/s 736 mmHg 98%
02:00 -2°C° 1.5 mm 5 m/s 736 mmHg 98%
03:00 -2°C° 1.5 mm 4 m/s 736 mmHg 98%
04:00 -2°C° 1.5 mm 4 m/s 736 mmHg 98%
05:00 -2°C° 0.4 mm 4 m/s 737 mmHg 99%
06:00 -1°C° 0.4 mm 3 m/s 737 mmHg 99%
07:00 -1°C° 0.4 mm 3 m/s 737 mmHg 99%
08:00 -1°C° 0.5 mm 3 m/s 737 mmHg 99%
09:00 -1°C° 0.5 mm 2 m/s 738 mmHg 99%
10:00 +1°C° 0.5 mm 2 m/s 738 mmHg 99%
11:00 +1°C° 0.5 mm 2 m/s 738 mmHg 99%
12:00 +1°C° 0.5 mm 2 m/s 739 mmHg 100%
13:00 +1°C° 0.5 mm 2 m/s 739 mmHg 100%
14:00 +1°C° 0.3 mm 2 m/s 739 mmHg 99%
15:00 +1°C° 0.3 mm 2 m/s 740 mmHg 99%
16:00 +1°C° 0.3 mm 2 m/s 740 mmHg 99%
17:00 +1°C° 0.2 mm 2 m/s 740 mmHg 99%
18:00 +1°C° 0.2 mm 2 m/s 740 mmHg 99%
19:00 +1°C° 0.2 mm 2 m/s 741 mmHg 99%
20:00 +1°C° 0.1 mm 2 m/s 741 mmHg 99%
21:00 +1°C° 0.1 mm 2 m/s 741 mmHg 99%
22:00 +1°C° 0.1 mm 2 m/s 742 mmHg 99%
23:00 0°C° 0.3 mm 3 m/s 742 mmHg 99%

16 Aprilie, Vineri

Timp Temperatura Precipitaţii Vânt Presiune Umiditate
00:00 +1°C° 0.3 mm 3 m/s 742 mmHg 99%
01:00 +1°C° 0.3 mm 3 m/s 742 mmHg 99%
02:00 +1°C° 0.2 mm 3 m/s 742 mmHg 99%
03:00 0°C° 0.2 mm 3 m/s 743 mmHg 99%
04:00 0°C° 0.2 mm 3 m/s 743 mmHg 99%
05:00 0°C° 0 mm 3 m/s 744 mmHg 99%
06:00 0°C° 0 mm 3 m/s 744 mmHg 99%
07:00 0°C° 0 mm 3 m/s 745 mmHg 99%
08:00 -1°C° 0 mm 4 m/s 745 mmHg 99%
09:00 0°C° 0 mm 4 m/s 746 mmHg 99%
10:00 0°C° 0 mm 4 m/s 746 mmHg 99%
11:00 +1°C° 0 mm 4 m/s 746 mmHg 97%
12:00 +3°C° 0 mm 3 m/s 746 mmHg 96%
13:00 +4°C° 0 mm 3 m/s 747 mmHg 94%
14:00 +4°C° 0 mm 3 m/s 747 mmHg 92%
15:00 +4°C° 0 mm 3 m/s 747 mmHg 91%
16:00 +6°C° 0 mm 2 m/s 747 mmHg 89%
17:00 +5°C° 0 mm 2 m/s 747 mmHg 90%
18:00 +4°C° 0 mm 2 m/s 747 mmHg 91%
19:00 +3°C° 0 mm 2 m/s 747 mmHg 92%
20:00 +2°C° 0 mm 2 m/s 748 mmHg 91%
21:00 +1°C° 0 mm 3 m/s 748 mmHg 89%
22:00 0°C° 0 mm 3 m/s 748 mmHg 88%
23:00 -1°C° 0 mm 3 m/s 748 mmHg 88%
Arată mai mult

Formular de consimțământ

Meteoprog și furnizorii noștri de servicii pot stoca și accesa date personale, precum cookies, identificatori de dispozitiv sau alte tehnologii similare pe dispozitivul dumneavoastră și procesa astfel de date pentru a personaliza conținutul și reclamele, dar și pentru a oferi caracteristici de social media și pentru a analiza traficul.

  • Stocarea și/sau accesarea informațiilor pe dispozitivul dumneavoastră

    Cookies, identificatori de dispozitiv sau alte informații pot fi stocate sau accesate pe dispozitiv în scopurile indicate mai sus.

  • Reclame și conținut personalizat, evaluarea reclamelor și a conținutului, informații despre audiențe și dezvoltarea produselor

    Reclamele și conținutul pot fi personalizate pe baza unui profil. Pot fi adăugate date suplimentare pentru a personaliza mai bine reclamele și conținutul. Performanța reclamelor și conținutului poate fi măsurată. Pot fi obținute informații despre utilizatorii care au văzut reclamele și conținutul. Aceste date pot fi utilizate pentru a dezvolta sau îmbunătăți experiența utilizatorilor, sistemele și software-ul.

Dând clic pe ‘Sunt de acord’, permiteți utilizarea cookie-urilor menționate, a identificatorilor de dispozitiv, balizelor web sau altor tehnologii similare. Setările pot fi modificate din browser-ul dispozitivului dumneavoastră.

În anumite scopuri, interesele legitime pot prima asupra consimțământului. Puteți citi mai multe informații în acest sens în Politica privind Confidențialitatea Datelor și Cookie.